TimeCST,TemperatureF,Dew PointF,Humidity,Sea Level PressureIn,VisibilityMPH,Wind Direction,Wind SpeedMPH,Gust SpeedMPH,PrecipitationIn,Events,Conditions,WindDirDegrees,DateUTC
12:53 AM,17.1,15.1,92,30.29,6.0,SSW,3.5,-,N/A,,Clear,200,2013-01-03 06:53:00
1:53 AM,19.0,16.0,88,30.30,4.0,South,3.5,-,N/A,,Mostly Cloudy,170,2013-01-03 07:53:00
2:53 AM,21.0,18.0,88,30.33,6.0,Calm,Calm,-,N/A,,Overcast,0,2013-01-03 08:53:00
3:53 AM,25.0,21.9,88,30.32,8.0,Calm,Calm,-,N/A,,Overcast,0,2013-01-03 09:53:00
4:53 AM,25.0,21.9,88,30.32,8.0,South,4.6,-,N/A,,Overcast,170,2013-01-03 10:53:00
5:53 AM,24.1,21.0,88,30.33,8.0,Calm,Calm,-,N/A,,Mostly Cloudy,0,2013-01-03 11:53:00
6:38 AM,17.6,15.8,93,30.31,1.8,Calm,Calm,-,N/A,,Clear,0,2013-01-03 12:38:00
6:48 AM,21.2,17.6,86,30.31,3.0,Calm,Calm,-,N/A,,Clear,0,2013-01-03 12:48:00
6:53 AM,21.0,18.0,88,30.35,6.0,Calm,Calm,-,N/A,,Clear,0,2013-01-03 12:53:00
7:53 AM,18.0,16.0,92,30.38,6.0,Calm,Calm,-,N/A,,Clear,0,2013-01-03 13:53:00
8:53 AM,21.9,19.9,92,30.40,9.0,WNW,3.5,-,N/A,,Mostly Cloudy,290,2013-01-03 14:53:00
9:53 AM,27.0,21.9,81,30.43,10.0,WNW,5.8,-,N/A,,Mostly Cloudy,300,2013-01-03 15:53:00
10:53 AM,30.9,24.1,76,30.44,10.0,NW,9.2,-,N/A,,Clear,320,2013-01-03 16:53:00
11:53 AM,32.0,23.0,69,30.43,10.0,NW,6.9,-,N/A,,Overcast,320,2013-01-03 17:53:00
12:53 PM,32.0,23.0,69,30.42,10.0,NNW,9.2,-,N/A,,Overcast,330,2013-01-03 18:53:00
1:53 PM,32.0,19.9,61,30.40,10.0,NNW,17.3,-,N/A,,Partly Cloudy,330,2013-01-03 19:53:00
2:53 PM,30.9,19.0,61,30.41,10.0,NNW,10.4,-,N/A,,Partly Cloudy,340,2013-01-03 20:53:00
3:53 PM,30.0,19.9,66,30.43,10.0,WNW,10.4,-,N/A,,Overcast,300,2013-01-03 21:53:00
4:53 PM,28.0,19.9,72,30.43,10.0,WNW,8.1,-,N/A,,Overcast,300,2013-01-03 22:53:00
5:53 PM,25.0,18.0,75,30.45,10.0,WNW,8.1,-,N/A,,Partly Cloudy,290,2013-01-03 23:53:00
6:53 PM,21.0,15.1,78,30.46,10.0,WNW,6.9,-,N/A,,Clear,290,2013-01-04 00:53:00
7:53 PM,17.1,12.0,81,30.47,10.0,NNW,6.9,-,N/A,,Clear,330,2013-01-04 01:53:00
8:53 PM,17.1,12.9,84,30.47,10.0,Calm,Calm,-,N/A,,Clear,0,2013-01-04 02:53:00
9:53 PM,14.0,9.0,80,30.45,10.0,Calm,Calm,-,N/A,,Clear,0,2013-01-04 03:53:00
10:53 PM,12.9,9.0,84,30.44,8.0,Calm,Calm,-,N/A,,Clear,0,2013-01-04 04:53:00